Tracking 23731 objects as of 26-Sep-2021
HD Live streaming from Space Station
objects crossing your sky now

STARLINK-1393

Track STARLINK-1393 now!
10-day predictions
STARLINK-1393 is classified as:


NORAD ID: 45678
Int'l Code: 2020-035X
Perigee: 552.9 km
Apogee: 556.0 km
Inclination: 53.1 °
Period: 95.6 minutes
Semi major axis: 6925 km
RCS: Unknown
Launch date: June 4, 2020
Source: United States (US)
Launch site: AIR FORCE EASTERN TEST RANGE (AFETR)
aabbcc
Your satellite tracking list
Your tracking list is empty




NASA's NSSDC Master Catalog

Two Line Element Set (TLE):
1 45678U 20035X   21269.00762098 -.00001753  00000-0 -98821-4 0  9992
2 45678  53.0561 154.5953 0002232  71.3819 288.7412 15.06379857 73432
Source of the keplerian elements: AFSPC